Simultaneous Nadir Overpasses (SNOs) Predictions

Prediction of SNOs between METOP-C and LANDSAT-8 Satellite Orbit:

Table of predicted SNOs for the next 14.0 days since TLE Epoch: 10/19/2019
Index Date (METOP-C) Time (METOP-C) Lat,Lon (METOP-C) SZA (METOP-C ) Date (LANDSAT-8) Time (LANDSAT-8) Lat,Lon (LANDSAT-8) SZA (LANDSAT-8 ) Distance(km) Time Diff (sec)
1 10/20/2019 05:08:41 -81.15, -36.93 86.22 10/20/2019 05:09:39 -81.14, -37.11 86.22 3.13 58
2 10/20/2019 05:59:19 81.17, 131.13 93.89 10/20/2019 05:59:04 81.17, 131.00 93.87 2.23 15
3 10/23/2019 00:43:03 -81.15, 29.37 85.23 10/23/2019 00:43:54 -81.15, 29.49 85.19 2.25 51
4 10/23/2019 01:33:42 81.16,-162.95 94.84 10/23/2019 01:33:20 81.16,-162.80 94.84 2.69 22
5 10/25/2019 20:17:25 -81.14, 95.66 84.26 10/25/2019 20:18:10 -81.14, 95.70 84.24 0.75 45
6 10/25/2019 21:08:03 81.17, -96.27 95.85 10/25/2019 21:07:35 81.17, -96.24 95.84 0.50 28
7 10/28/2019 15:51:45 -81.15, 162.33 83.27 10/28/2019 15:52:24 -81.15, 162.25 83.26 1.52 39
8 10/28/2019 16:42:23 81.18, -29.59 96.84 10/28/2019 16:41:49 81.17, -29.71 96.81 2.24 34
9 10/31/2019 11:26:07 -81.15,-131.38 82.36 10/31/2019 11:26:39 -81.15,-131.23 82.33 2.68 32




NCC Satellite Simultaneous Nadir Overpasses (SNOs) Prediction Service
